Flag for Netherlands Weather past 2 weeks in Montfoort, Netherlands

Now
63 °F

Fog.


Feels Like: 63 °F
Forecast: 56 / 73 °F
Wind: 1 mph from East

Location: De Bilt

Current Time: Sep 19, 2014 at 10:46:11 AM

Latest Report: Sep 19, 2014 at 10:00 AM


Visibility: 2 mi

Pressure: 29.87 "Hg

Humidity: 98%

Dew point: 62 °F

Location of MontfoortLocation

Historic Weather in Montfoort — Graph

°F

Montfoort temperature yesterday

Maximum temperature yesterday: 77 °F (at 3:00 PM)
Minimum temperature yesterday: 54 °F (at 7:00 AM)
Average temperature yesterday: 66 °F

Past Weeks' High & Low Weather Summary

 TemperatureHumidityPressure
High77 °F (Sep 18, 3:00 PM)100% (Sep 5, 3:00 AM)30.29 "Hg (Sep 5, 3:00 AM)
Low46 °F (Sep 8, 7:00 AM)52% (Sep 17, 3:00 PM)29.81 "Hg (Sep 18, 5:00 PM)
Average62 °F85%30.05 "Hg
* Reported Sep 4 8:00 AM — Sep 19 8:00 AM, Montfoort, Weather by CustomWeather, © 2014

Note: Actual official high and low records may vary slightly from our data, if they occured in-between our weather recording intervals... More about our weather records

Advertising

Montfoort weather history for previous 24 hours

 ConditionsComfort  
Time TempWeatherWind HumidityBarometerVisibility
8:00 AM
Sep 19
60 °FLow clouds.2 mph100%29.85 "Hg2 mi
7:00 AM57 °FLow clouds.1 mph100%29.84 "Hg0 mi
6:00 AM58 °FOvercast.1 mph100%29.83 "Hg0 mi
5:00 AM58 °FPassing clouds.1 mph100%29.83 "Hg1 mi
4:00 AM59 °FFog.1 mph100%29.83 "Hg2 mi
3:00 AM59 °FFog.2 mph100%29.84 "Hg4 mi
2:00 AM59 °FFog.1 mph100%29.84 "Hg2 mi
1:00 AM65 °FPassing clouds.2 mph89%29.84 "Hg9 mi
12:00 AM67 °FFog.2 mph83%29.84 "Hg17 mi
11:00 PM
Sep 18
67 °FOvercast.1 mph86%29.84 "Hg13 mi
10:00 PM67 °FOvercast.2 mph83%29.84 "Hg16 mi
9:00 PM69 °FOvercast.3 mph80%29.84 "Hg25 mi
8:00 PM70 °FOvercast.2 mph76%29.82 "Hg25 mi
5:00 PM77 °FPassing clouds.3 mph62%29.81 "Hg14 mi
4:00 PM77 °FPassing clouds.3 mph57%29.82 "Hg12 mi
3:00 PM77 °FSunny.3 mph60%29.82 "Hg10 mi
2:00 PM76 °FPassing clouds.5 mph60%29.83 "Hg13 mi
1:00 PM76 °FSunny.2 mph64%29.83 "Hg12 mi
12:00 PM74 °FSunny.3 mph66%29.83 "Hg10 mi
11:00 AM70 °FSunny.2 mph75%29.84 "Hg7 mi
10:00 AM66 °FFog.2 mph81%29.84 "Hg6 mi
Weather by CustomWeather, © 2014

See weather overviewHow to use our weather pages